Hourly Data Report for September 11, 2007

PETERBOROUGH AWOS
ONTARIO

44°14'00.000" N
78°22'00.000" W
191.40 m
6166420

Download Data

Hourly Data (September 2007)
Hourly Data Report for September 11, 2007
TIME
LST
Temp Definition
°C
Dew Point Definition
°C
Rel Hum Definition
%
Precip. Amount Definition
mm

Wind Dir Definition
10's deg

Wind Spd Definition
km/h
Visibility Definition
km
Stn Press Definition
kPa
Hmdx Definition


Wind Chill Definition


Weather Definition


00:00 15.0 13.6 91   9 6 15.0 98.83      
01:00 15.6 13.4 87   1 4 15.0 98.72      
02:00 15.7 13.7 88   36 4 15.0 98.68     Rain
03:00 15.9 13.5 86   1 4 15.0 98.63     Rain
04:00 15.5 14.6 94   2 4 15.0 98.57     Rain
05:00 14.8 14.3 97   4 4 15.0 98.44     Rain
06:00 14.7 14.3 97   1 4 15.0 98.37     Rain
07:00 14.4 14.3 99   4 6 15.0 98.24      
08:00 14.9 14.6 98     0 15.0 98.22      
09:00 15.7 14.9 95   26 4 15.0 98.16      
10:00 17.6 15.2 86     0 15.0 98.10      
11:00 19.1 14.4 74   27 15 15.0 98.04      
12:00 19.3 14.6 74   27 11 15.0 97.96      
13:00 20.1 14.2 69   27 15 15.0 97.89      
14:00 21.0 13.5 62   24 19 15.0 97.81      
15:00 15.6 14.3 92   29 22 15.0 97.86     Moderate Rain
16:00 17.9 13.3 74   30 26 15.0 97.88      
17:00 17.8 11.8 68   32 19 15.0 97.88      
18:00 16.7 10.7 68   30 15 15.0 97.95      
19:00 15.5 10.3 71   31 9 15.0 98.03      
20:00 14.1 10.5 79   25 7 15.0 98.10      
21:00 12.0 9.7 86   28 17 14.5 98.14     Moderate Rain
22:00 11.2 10.4 95   26 9 15.0 98.13      
23:00 10.5 9.7 95   26 13 15.0 98.16      

Notes on Data Quality.

Legend

  • E = Estimated
  • M = Missing
  • NA = Not Available*
  • [empty] = Indicates an unobserved value
Date modified: